UZB3245 UZTT-OTHH

Flight info

Callsign UZB3245
Flight time N/A
Altitude 34000
Route K0857F340 BAMG2A BAMGU T609 USETU/K0846F350 M741 AMDAR/N0456F350 M875 SAJAN/N0465F360 G325 PG T385 TAPDO G652 TULBU M628 PEKEM/N0438F280 M628 KATIT DCT BAT DCT LAEEB LAEB1L
Aircraft A20N/M-VGDW/C

Departure

Time 2026-04-30 19:18
Airport Tashkent International Airport (UZTT)

Arrival

Time N/A
Airport Hamad International Airport (OTHH)
Time Latitude Longitude Altitude Speed Heading
2026-04-30 18:52 41.26107 69.26697 1382 ft 0 kts 315°
2026-04-30 19:07 41.26096 69.26711 1377 ft 4 kts 314°
2026-04-30 19:07 41.26077 69.26738 1377 ft 4 kts 312°
2026-04-30 19:08 41.26043 69.26794 1380 ft 4 kts 300°
2026-04-30 19:08 41.26034 69.26837 1379 ft 0 kts 246°
2026-04-30 19:11 41.26032 69.26831 1379 ft 1 kts 247°
2026-04-30 19:11 41.26020 69.26793 1380 ft 3 kts 247°
2026-04-30 19:11 41.26010 69.26761 1378 ft 4 kts 247°
2026-04-30 19:12 41.25996 69.26720 1380 ft 5 kts 246°
2026-04-30 19:12 41.25980 69.26672 1378 ft 6 kts 246°
2026-04-30 19:12 41.25969 69.26638 1381 ft 6 kts 246°
2026-04-30 19:13 41.25930 69.26522 1383 ft 7 kts 246°
2026-04-30 19:13 41.25861 69.26427 1385 ft 6 kts 219°
2026-04-30 19:13 41.25832 69.26396 1386 ft 4 kts 219°
2026-04-30 19:14 41.25809 69.26371 1388 ft 4 kts 219°
2026-04-30 19:14 41.25787 69.26347 1390 ft 4 kts 219°
2026-04-30 19:14 41.25772 69.26329 1400 ft 2 kts 223°
2026-04-30 19:14 41.25766 69.26321 1400 ft 1 kts 225°
2026-04-30 19:15 41.25759 69.26310 1402 ft 2 kts 231°
2026-04-30 19:15 41.25723 69.26215 1406 ft 9 kts 245°
2026-04-30 19:15 41.25704 69.26161 1407 ft 9 kts 244°
2026-04-30 19:16 41.25672 69.26081 1406 ft 9 kts 223°
2026-04-30 19:16 41.25632 69.26094 1405 ft 6 kts 127°
2026-04-30 19:16 41.25631 69.26170 1406 ft 0 kts 81°
2026-04-30 19:17 41.25656 69.26391 1405 ft 58 kts 82°
2026-04-30 19:17 41.25807 69.27765 1412 ft 138 kts 82°
2026-04-30 19:18 41.26025 69.29731 1648 ft 168 kts 81°
2026-04-30 19:18 41.26288 69.32158 2781 ft 156 kts 84°
2026-04-30 19:18 41.26447 69.33544 3278 ft 151 kts 82°
2026-04-30 19:19 41.26684 69.35039 3494 ft 169 kts 79°
2026-04-30 19:19 41.26900 69.36680 3807 ft 183 kts 83°
2026-04-30 19:19 41.27172 69.39496 4576 ft 186 kts 84°
2026-04-30 19:20 41.27347 69.41320 4759 ft 207 kts 83°
2026-04-30 19:20 41.27541 69.43294 5057 ft 221 kts 83°
2026-04-30 19:20 41.27967 69.47422 6105 ft 227 kts 82°
2026-04-30 19:21 41.28195 69.49590 6667 ft 229 kts 82°
2026-04-30 19:21 41.27634 69.53668 7702 ft 233 kts 136°
2026-04-30 19:22 41.24630 69.55044 8738 ft 235 kts 173°
2026-04-30 19:22 41.20066 69.52259 9541 ft 282 kts 227°
2026-04-30 19:23 41.15629 69.46094 10408 ft 335 kts 227°
2026-04-30 19:24 41.12183 69.41373 11336 ft 353 kts 226°
2026-04-30 19:24 41.10443 69.38996 11958 ft 356 kts 226°
2026-04-30 19:24 41.06965 69.34246 13187 ft 362 kts 226°
2026-04-30 19:25 41.01621 69.26951 14859 ft 370 kts 226°
2026-04-30 19:26 40.97981 69.21993 15889 ft 376 kts 225°
2026-04-30 19:26 40.94811 69.17683 16781 ft 381 kts 225°
2026-04-30 19:26 40.92853 69.15038 17331 ft 384 kts 224°
2026-04-30 19:27 40.88443 69.10912 18373 ft 390 kts 212°
2026-04-30 19:27 40.83817 69.07085 19379 ft 394 kts 212°
2026-04-30 19:28 40.81490 69.05142 19895 ft 397 kts 212°
2026-04-30 19:28 40.76957 69.00934 20891 ft 401 kts 223°
2026-04-30 19:29 40.72876 68.95785 21837 ft 405 kts 224°
2026-04-30 19:29 40.70832 68.93221 22286 ft 407 kts 224°
2026-04-30 19:30 40.64589 68.85430 23560 ft 414 kts 224°
2026-04-30 19:30 40.60393 68.80197 24251 ft 417 kts 224°
2026-04-30 19:31 40.56294 68.74766 24923 ft 420 kts 229°
2026-04-30 19:31 40.54383 68.71843 25251 ft 422 kts 229°
2026-04-30 19:31 40.50549 68.65974 25897 ft 425 kts 229°
2026-04-30 19:32 40.48617 68.63019 26229 ft 426 kts 229°
2026-04-30 19:32 40.46655 68.60022 26551 ft 428 kts 229°
2026-04-30 19:32 40.44682 68.57014 26879 ft 430 kts 229°
2026-04-30 19:32 40.42725 68.54035 27191 ft 431 kts 229°
2026-04-30 19:33 40.40734 68.51012 27521 ft 433 kts 229°
2026-04-30 19:33 40.38756 68.48013 27973 ft 431 kts 229°
2026-04-30 19:33 40.36814 68.45068 28428 ft 429 kts 229°
2026-04-30 19:33 40.34871 68.42116 28899 ft 428 kts 229°
2026-04-30 19:34 40.32904 68.39125 29351 ft 426 kts 229°
2026-04-30 19:34 40.31506 68.37002 29679 ft 425 kts 229°
2026-04-30 19:34 40.27632 68.31153 30492 ft 422 kts 229°
2026-04-30 19:35 40.25704 68.28252 30873 ft 421 kts 229°
2026-04-30 19:35 40.23760 68.25324 31256 ft 419 kts 229°
2026-04-30 19:35 40.21853 68.22449 31643 ft 418 kts 229°
2026-04-30 19:35 40.19967 68.19602 32019 ft 417 kts 229°
2026-04-30 19:36 40.17976 68.16596 32422 ft 416 kts 229°
2026-04-30 19:36 40.16060 68.13711 32807 ft 415 kts 229°
2026-04-30 19:36 40.12257 68.08001 33565 ft 412 kts 229°
2026-04-30 19:37 40.10348 68.05144 33880 ft 412 kts 229°
2026-04-30 19:37 40.08456 68.02313 33949 ft 416 kts 229°
2026-04-30 19:37 40.04590 67.96529 33954 ft 428 kts 229°
2026-04-30 19:38 40.00657 67.90658 33962 ft 430 kts 229°
2026-04-30 19:38 39.96679 67.84742 33971 ft 431 kts 229°
2026-04-30 19:39 39.92709 67.78829 33975 ft 431 kts 229°
2026-04-30 19:39 39.88729 67.72916 33984 ft 431 kts 229°
2026-04-30 19:40 39.84775 67.67072 33997 ft 431 kts 229°
2026-04-30 19:40 39.80606 67.61411 33993 ft 431 kts 219°
2026-04-30 19:41 39.75826 67.56678 34001 ft 431 kts 218°
2026-04-30 19:41 39.71013 67.51931 34123 ft 432 kts 218°
2026-04-30 19:42 39.68625 67.49579 34418 ft 431 kts 219°
2026-04-30 19:42 39.66237 67.47234 34708 ft 430 kts 219°
2026-04-30 19:42 39.63859 67.44900 34953 ft 429 kts 219°
2026-04-30 19:42 39.61480 67.42563 35002 ft 428 kts 219°
2026-04-30 19:43 39.56700 67.37879 35000 ft 427 kts 219°
2026-04-30 19:44 39.49577 67.30924 35004 ft 427 kts 219°
2026-04-30 19:44 39.44537 67.26762 35011 ft 432 kts 205°
2026-04-30 19:44 39.41656 67.25595 35015 ft 437 kts 194°
2026-04-30 19:45 39.38621 67.25173 35018 ft 442 kts 184°
2026-04-30 19:45 39.32452 67.25969 35019 ft 447 kts 177°
2026-04-30 19:46 39.26280 67.26942 35024 ft 448 kts 177°
2026-04-30 19:46 39.20094 67.27599 35039 ft 444 kts 185°
2026-04-30 19:47 39.13877 67.27514 35052 ft 444 kts 185°
2026-04-30 19:47 39.07677 67.27503 35073 ft 446 kts 184°
2026-04-30 19:48 39.01472 67.27617 35081 ft 446 kts 183°
2026-04-30 19:48 38.95259 67.27735 35088 ft 446 kts 184°
2026-04-30 19:49 38.90056 67.27809 35097 ft 447 kts 184°
2026-04-30 19:49 38.80737 67.27917 35090 ft 447 kts 184°
2026-04-30 19:50 38.74527 67.27991 35100 ft 447 kts 184°
2026-04-30 19:50 38.68308 67.28062 35098 ft 447 kts 184°
2026-04-30 19:51 38.62047 67.28135 35096 ft 447 kts 184°
2026-04-30 19:51 38.55829 67.28214 35090 ft 447 kts 184°
2026-04-30 19:52 38.49606 67.28295 35078 ft 448 kts 184°
2026-04-30 19:52 38.43372 67.28376 35061 ft 448 kts 185°
2026-04-30 19:53 38.37053 67.28455 35049 ft 448 kts 185°
2026-04-30 19:53 38.30818 67.28522 35039 ft 448 kts 185°
2026-04-30 19:54 38.24537 67.28599 35028 ft 449 kts 185°
2026-04-30 19:54 38.18290 67.28680 35016 ft 449 kts 185°
2026-04-30 19:55 38.12029 67.28852 35001 ft 451 kts 183°
2026-04-30 19:55 38.05705 67.29266 34991 ft 453 kts 182°
2026-04-30 19:56 37.99408 67.29722 34981 ft 453 kts 183°
2026-04-30 19:56 37.93065 67.30122 34979 ft 454 kts 183°
2026-04-30 19:57 37.86714 67.30486 34973 ft 454 kts 184°
2026-04-30 19:57 37.80402 67.30845 34970 ft 454 kts 184°
2026-04-30 19:58 37.74053 67.31225 34963 ft 454 kts 184°
2026-04-30 19:58 37.67732 67.31598 34958 ft 454 kts 184°
2026-04-30 19:59 37.61418 67.31964 34947 ft 454 kts 184°
2026-04-30 20:00 37.51902 67.32520 34934 ft 455 kts 184°
2026-04-30 20:00 37.45579 67.32886 34925 ft 455 kts 184°
2026-04-30 20:01 37.36048 67.33440 34922 ft 455 kts 185°
2026-04-30 20:01 37.29720 67.33810 34924 ft 456 kts 185°
2026-04-30 20:02 37.20189 67.35244 34923 ft 471 kts 168°
2026-04-30 20:03 37.14212 67.38931 34914 ft 482 kts 158°
2026-04-30 20:03 37.11279 67.40973 34912 ft 483 kts 158°
2026-04-30 20:03 37.05398 67.45061 34904 ft 483 kts 158°
2026-04-30 20:04 36.99476 67.49163 34900 ft 484 kts 158°
2026-04-30 20:05 36.90617 67.55289 34900 ft 485 kts 158°
2026-04-30 20:05 36.81698 67.61436 34922 ft 487 kts 158°
2026-04-30 20:06 36.75762 67.65516 34936 ft 487 kts 159°
2026-04-30 20:06 36.69822 67.69593 34945 ft 488 kts 158°
2026-04-30 20:07 36.63881 67.73691 34952 ft 489 kts 158°
2026-04-30 20:08 36.55918 67.79179 34958 ft 489 kts 159°
2026-04-30 20:08 36.49961 67.83270 34968 ft 490 kts 159°
2026-04-30 20:09 36.43956 67.87387 34979 ft 490 kts 159°
2026-04-30 20:09 36.34950 67.93550 34996 ft 491 kts 159°
2026-04-30 20:10 36.25964 67.99671 35004 ft 492 kts 159°
2026-04-30 20:11 36.16921 68.05827 35018 ft 492 kts 159°
2026-04-30 20:11 36.10871 68.09931 35030 ft 493 kts 159°
2026-04-30 20:12 36.01786 68.16068 35045 ft 494 kts 159°
2026-04-30 20:13 35.95747 68.20146 35055 ft 495 kts 159°
2026-04-30 20:13 35.89702 68.24233 35058 ft 495 kts 159°
2026-04-30 20:14 35.83658 68.28315 35065 ft 496 kts 159°
2026-04-30 20:14 35.77561 68.32417 35066 ft 496 kts 160°
2026-04-30 20:15 35.71487 68.36480 35070 ft 497 kts 159°
2026-04-30 20:15 35.65376 68.40575 35065 ft 497 kts 160°
2026-04-30 20:16 35.59256 68.44666 35068 ft 498 kts 160°
2026-04-30 20:16 35.53119 68.48742 35082 ft 499 kts 160°
2026-04-30 20:17 35.46967 68.52810 35092 ft 499 kts 160°